Pompano Beach, FL

9:57 PM EDT on June 27, 2017 (GMT -0400)
Pompano Beach

Weather History for KPMP - January, 2015

Change the Weather History Date:

Wednesday, January 14, 2015

  Actual Average Record
Temperature  
Mean Temperature 74 °F -  
Max Temperature 79 °F 76 °F 85 °F (1972)
Min Temperature 69 °F 55 °F 32 °F (1956)
Cooling Degree Days 9    
Growing Degree Days 24 (Base 50)    
Moisture  
Dew Point 66 °F    
Average Humidity 83    
Maximum Humidity 93    
Minimum Humidity 62    
Precipitation  
Precipitation 0.00 in - - ()
Sea Level Pressure  
Sea Level Pressure 30.05 in    
Wind  
Wind Speed 6 mph (NNW)    
Max Wind Speed 15 mph    
Max Gust Speed -    
Visibility 6 miles    
Events Fog , Rain    
Averages and records for this station are not official NWS values.
T = Trace of Precipitation, MM = Missing Value Source: NWS Daily Summary

Daily Weather History Graph

Daily Weather History Graph

Search for Another Location

Airport or City:

Trip Planner

Search our weather history database for the weather conditions in past years. The results will help you decide how hot, cold, wet, or windy it might be!

Date:

Astronomy

Jan. 14, 2015 Rise Set
Actual Time 7:09 AM EST 5:49 PM EST
Civil Twilight 6:44 AM EST 6:14 PM EST
Nautical Twilight 6:16 AM EST 6:42 PM EST
Astronomical Twilight 5:48 AM EST 7:10 PM EST
Moon 1:16 AM EST (1/14) 12:50 PM EST (1/14)
Length of Visible Light 11h 29m
Length of Day
10h 39m
Last Quarter, 37% of the Moon is Illuminated
Jan 14
Last Quarter
Jan 20
New
Jan 26
First Quarter
Feb 3
Full
Feb 11
Last Quarter

Hourly Weather History & Observations

Time (EST) Temp. Dew Point Humidity Pressure Visibility Wind Dir Wind Speed Gust Speed Precip Events Conditions
12:13 AM 73.0 °F 68.0 °F 84% 30.05 in 10.0 mi Calm Calm - N/A   Mostly Cloudy
12:53 AM 73.0 °F 68.0 °F 84% 30.05 in 10.0 mi NW 3.5 mph - N/A   Mostly Cloudy
1:11 AM 72.0 °F 68.0 °F 87% 30.04 in 10.0 mi NW 3.5 mph - N/A   Scattered Clouds
1:32 AM 72.0 °F 68.0 °F 87% 30.04 in 10.0 mi NW 3.5 mph - N/A   Scattered Clouds
1:53 AM 72.0 °F 68.0 °F 87% 30.04 in 10.0 mi NNW 5.8 mph - N/A   Partly Cloudy
2:08 AM 72.0 °F 69.1 °F 91% 30.03 in 3.0 mi North 6.9 mph - N/A   Mostly Cloudy
2:22 AM 72.0 °F 69.1 °F 91% 30.03 in 1.8 mi NNW 9.2 mph - N/A   Overcast
2:34 AM 71.1 °F 69.1 °F 93% 30.03 in 0.8 mi NNW 10.4 mph - N/A   Mist
2:44 AM 71.1 °F 69.1 °F 93% 30.03 in 1.0 mi NNW 6.9 mph - N/A   Mist
2:53 AM 71.1 °F 69.1 °F 93% 30.03 in 0.8 mi NNW 6.9 mph - N/A   Mist
3:17 AM 71.1 °F 68.0 °F 90% 30.02 in 0.5 mi NNW 6.9 mph - N/A Fog Fog
3:53 AM 70.0 °F 68.0 °F 93% 30.02 in 0.2 mi NNW 4.6 mph - N/A Fog Fog
4:53 AM 70.0 °F 68.0 °F 93% 30.01 in 0.2 mi North 4.6 mph - N/A Fog Fog
5:53 AM 70.0 °F 68.0 °F 93% 30.04 in 0.2 mi North 6.9 mph - N/A Fog Fog
6:10 AM 69.1 °F 66.9 °F 93% 30.05 in 0.8 mi NNW 6.9 mph - N/A   Mist
6:28 AM 69.1 °F 66.9 °F 93% 30.05 in 2.0 mi NNW 9.2 mph - N/A   Overcast
6:51 AM 69.8 °F 66.2 °F 88% 30.05 in 1.8 mi North 4.6 mph - N/A   Overcast
6:53 AM 69.1 °F 66.9 °F 93% 30.06 in 1.8 mi North 8.1 mph - N/A   Overcast
7:00 AM 69.1 °F 66.0 °F 90% 30.06 in 3.0 mi North 8.1 mph - N/A   Overcast
7:18 AM 69.1 °F 66.9 °F 93% 30.06 in 2.0 mi North 6.9 mph - N/A   Overcast
7:26 AM 69.1 °F 66.9 °F 93% 30.07 in 1.2 mi North 4.6 mph - N/A   Overcast
7:38 AM 69.1 °F 66.0 °F 90% 30.07 in 3.0 mi North 8.1 mph - N/A   Overcast
7:46 AM 69.1 °F 66.0 °F 90% 30.08 in 3.0 mi NNW 10.4 mph - N/A   Overcast
7:53 AM 69.1 °F 66.0 °F 90% 30.08 in 3.0 mi NNW 11.5 mph - 0.00 in Rain Light Rain
8:53 AM 70.0 °F 66.0 °F 87% 30.09 in 10.0 mi North 8.1 mph - 0.00 in   Overcast
9:53 AM 72.0 °F 66.0 °F 81% 30.10 in 10.0 mi North 9.2 mph - N/A   Overcast
10:53 AM 73.9 °F 66.0 °F 76% 30.09 in 10.0 mi North 5.8 mph - N/A   Overcast
11:00 AM 75.0 °F 66.0 °F 73% 30.08 in 10.0 mi NNW 8.1 mph - N/A   Overcast
11:38 AM 78.1 °F 66.0 °F 66% 30.07 in 10.0 mi NNW 10.4 mph - N/A   Scattered Clouds
11:53 AM 78.1 °F 66.0 °F 66% 30.07 in 10.0 mi NW 11.5 mph - N/A   Scattered Clouds
12:25 PM 77.0 °F 66.0 °F 69% 30.05 in 10.0 mi North 12.7 mph - N/A   Mostly Cloudy
12:53 PM 77.0 °F 66.0 °F 69% 30.04 in 10.0 mi NNW 9.2 mph - N/A   Mostly Cloudy
1:53 PM 79.0 °F 66.0 °F 64% 30.01 in 10.0 mi NNW 12.7 mph - N/A   Scattered Clouds
2:53 PM 79.0 °F 64.9 °F 62% 30.00 in 10.0 mi North 9.2 mph - N/A   Scattered Clouds
3:53 PM 78.1 °F 66.9 °F 68% 30.01 in 10.0 mi NE 13.8 mph - N/A   Scattered Clouds
4:53 PM 75.0 °F 66.9 °F 76% 30.03 in 10.0 mi NNE 15.0 mph - N/A   Clear
5:53 PM 73.0 °F 66.0 °F 79% 30.05 in 8.0 mi North 11.5 mph - N/A   Clear
6:53 PM 73.0 °F 64.9 °F 76% 30.06 in 10.0 mi North 6.9 mph - N/A   Clear
7:53 PM 72.0 °F 63.0 °F 73% 30.07 in 10.0 mi North 9.2 mph - N/A   Mostly Cloudy
8:53 PM 71.1 °F 63.0 °F 75% 30.07 in 10.0 mi North 10.4 mph - N/A   Mostly Cloudy
9:02 PM 71.1 °F 63.0 °F 75% 30.07 in 10.0 mi North 6.9 mph - N/A   Mostly Cloudy
9:53 PM 70.0 °F 62.1 °F 76% 30.08 in 10.0 mi North 8.1 mph - N/A   Mostly Cloudy
10:17 PM 70.0 °F 62.1 °F 76% 30.08 in 10.0 mi North 6.9 mph - N/A   Overcast
10:53 PM 70.0 °F 62.1 °F 76% 30.08 in 10.0 mi North 9.2 mph - N/A   Overcast
11:53 PM 69.1 °F 62.1 °F 78% 30.06 in 10.0 mi NNW 8.1 mph - N/A   Overcast